[[{"header":{"parameterUnit":"m.s-1","parameterCategory":1,"la1":30.2991,"la2":30.254,"lo1":-89.0895,"lo2":-89.0444,"dy":0.0017,"dx":0.0017,"nx":28,"ny":28,"refTime":"2023-11-08T03:00:00:Z","depth":0,"parameterNumber":2,"parameterNumberName":"U-component_of_WINDS"},"data":[0,0,0,0,0,0,0,0,0,0,0,0,0,0,0,0,0,0,0,0,0,0,0,0,0,0,0,0,0,0,0,0,0,0,0,0,0,0,0,0,0,0,0,0,0,0,0,0,0,0,0,0,0,0,0,0,0,0,-0.4339,-0.4339,0,-0.4302,-0.4302,-0.4301,-0.4299,-0.43,-0.43,-0.4301,-0.4261,-0.426,-0.4258,0,0,0,0,0,0,0,0,0,0,0,0,0,-0.4407,-0.4405,-0.4339,-0.4339,-0.4339,-0.4302,-0.4302,-0.4301,-0.4299,-0.43,-0.43,-0.4301,-0.4261,-0.426,-0.4258,0,0,0,0,0,0,0,0,0,0,0,0,0,-0.4374,-0.4405,-0.434,-0.4333,-0.4332,-0.4302,-0.4302,-0.4301,-0.4299,-0.43,-0.4301,-0.4301,-0.4262,-0.426,-0.4258,-0.4231,0,0,-0.4251,-0.425,0,0,0,0,0,0,0,0,-0.4376,-0.4372,-0.4335,-0.4334,-0.4333,-0.4306,-0.4311,-0.4277,-0.4299,-0.4312,-0.4301,-0.4302,-0.4275,-0.4272,-0.4264,-0.4229,-0.4227,-0.4251,-0.4249,-0.4248,-0.4248,0,0,0,0,0,0,0,-0.4378,-0.4373,-0.4325,-0.4334,-0.4333,-0.4332,-0.4328,-0.4304,-0.429,-0.4311,-0.4311,-0.4306,-0.4275,-0.4266,-0.4263,-0.4227,-0.4251,-0.4249,-0.4247,-0.4247,-0.4166,-0.4165,0,0,0,0,0,0,-0.4382,-0.4375,-0.4326,-0.4324,-0.4356,-0.433,-0.4325,-0.4314,-0.4291,-0.4288,-0.4306,-0.4306,-0.4269,-0.4265,-0.4261,-0.4226,-0.4248,-0.4246,-0.4245,-0.4166,-0.4165,-0.4165,0,0,0,0,0,0,-0.4384,-0.4378,-0.4327,-0.4349,-0.4343,-0.4328,-0.4315,-0.4313,-0.4304,-0.4287,-0.4284,-0.4299,-0.427,-0.4264,-0.4238,-0.4225,-0.4245,-0.4243,-0.4167,-0.4166,-0.4165,-0.4158,0,0,0,0,0,0,-0.4385,-0.4378,-0.4369,-0.4349,-0.4342,-0.4305,-0.4314,-0.4312,-0.43,-0.43,-0.428,-0.4277,-0.427,-0.4241,-0.4236,-0.4222,-0.4242,-0.4168,-0.4167,-0.4165,-0.4159,-0.4157,-0.4154,0,0,0,0,0,-0.4388,-0.4368,-0.4368,-0.4362,-0.4329,-0.4305,-0.43,-0.4293,-0.4299,-0.4289,-0.4277,-0.4278,-0.4228,-0.4239,-0.4232,-0.4218,-0.4169,-0.4167,-0.4166,-0.416,-0.4157,-0.4154,0,0,0,0,0,0,-0.4386,-0.4366,-0.4365,-0.4339,-0.4324,-0.4305,-0.4291,-0.429,-0.4272,-0.4273,-0.4264,-0.426,-0.4233,-0.4223,-0.4236,-0.419,-0.4199,-0.4196,-0.4197,-0.4194,-0.4192,-0.4194,-0.424,0,0,0,0,0,-0.4383,-0.4365,-0.4348,-0.4326,-0.4319,-0.4306,-0.4295,-0.4291,-0.4274,-0.4268,-0.4255,-0.4238,-0.4219,-0.4206,-0.4187,-0.4158,-0.4152,-0.4145,-0.4143,-0.4141,-0.4138,-0.4119,-0.4115,-0.4158,-0.4158,-0.4159,0,0,-0.4376,-0.4362,-0.4352,-0.4326,-0.4313,-0.4294,-0.4301,-0.4281,-0.4266,-0.4265,-0.4238,-0.4228,-0.4209,-0.4181,-0.4168,-0.4172,-0.4125,-0.4138,-0.4137,-0.4135,-0.4117,-0.4113,-0.4109,-0.4157,-0.4157,-0.4158,0,0,-0.4352,-0.4341,-0.4321,-0.4308,-0.4289,-0.4281,-0.4276,-0.4257,-0.425,-0.4224,-0.4222,-0.4204,-0.4171,-0.4157,-0.4145,-0.4115,-0.4114,-0.411,-0.4096,-0.4079,-0.4075,-0.4072,-0.4059,-0.4055,-0.4107,-0.4107,-0.4107,0,-0.4345,-0.4317,-0.431,-0.429,-0.4278,-0.4276,-0.4254,-0.4242,-0.4218,-0.4209,-0.4214,-0.4172,-0.4159,-0.4126,-0.4119,-0.411,-0.4103,-0.4111,-0.4076,-0.4073,-0.407,-0.4058,-0.4053,-0.4106,-0.4106,-0.4106,-0.4106,0,-0.4309,-0.4289,-0.4275,-0.4251,-0.4238,-0.4217,-0.4206,-0.4193,-0.4189,-0.418,-0.4152,-0.4137,-0.4114,-0.4106,-0.4103,-0.4072,-0.4075,-0.4078,-0.4087,-0.4066,-0.4054,-0.4049,-0.4105,-0.4106,-0.4106,-0.4106,0,0,-0.4283,-0.4256,-0.425,-0.4239,-0.4217,-0.4202,-0.418,-0.4158,-0.4146,-0.4129,-0.411,-0.4081,-0.4084,-0.4071,-0.4066,-0.405,-0.4025,-0.4055,-0.4055,-0.4049,-0.3988,-0.3984,-0.3979,-0.4025,-0.4024,-0.4023,-0.3989,0,-0.4256,-0.4218,-0.4211,-0.4177,-0.4158,-0.4155,-0.4136,-0.412,-0.4111,-0.4092,-0.4082,-0.4061,-0.4067,-0.4059,-0.4044,-0.4031,-0.4012,-0.4034,-0.4005,-0.4004,-0.4008,-0.3974,-0.397,-0.3939,-0.3985,-0.3984,-0.3983,0,-0.422,-0.4201,-0.4166,-0.4146,-0.4137,-0.412,-0.4098,-0.4082,-0.4063,-0.4057,-0.4042,-0.4038,-0.4014,-0.4025,-0.399,-0.4005,-0.3993,-0.3985,-0.3983,-0.3979,-0.3991,-0.3967,-0.3929,-0.3924,-0.3976,-0.3977,-0.3978,0,-0.4202,-0.4169,-0.4143,-0.4134,-0.411,-0.4098,-0.4087,-0.4069,-0.4056,-0.4036,-0.4027,-0.4006,-0.3993,-0.3976,-0.3965,-0.3975,-0.3931,-0.3942,-0.3924,-0.3924,-0.3914,-0.3915,-0.3872,-0.3909,-0.3909,-0.3909,-0.3909,0,-0.4172,-0.415,-0.4135,-0.4119,-0.4093,-0.4085,-0.406,-0.4049,-0.4033,-0.4013,-0.401,-0.3992,-0.398,-0.396,-0.3952,-0.3924,-0.3919,-0.3912,-0.391,-0.3911,-0.3912,-0.3902,-0.3903,-0.3908,-0.3908,-0.3908,-0.3909,0,-0.4148,-0.4137,-0.4108,-0.4088,-0.4082,-0.4064,-0.4046,-0.4029,-0.402,-0.3995,-0.3989,-0.3974,-0.3949,-0.3938,-0.3908,-0.3902,-0.387,-0.387,-0.3876,-0.3875,-0.3857,-0.3858,-0.3805,-0.3797,-0.3841,-0.3841,-0.384,0,-0.4129,-0.4111,-0.4089,-0.4076,-0.4065,-0.4044,-0.403,-0.4021,-0.4006,-0.3983,-0.3968,-0.3944,-0.3924,-0.3885,-0.3871,-0.3847,-0.3846,-0.3829,-0.3842,-0.3844,-0.3843,-0.3844,-0.3841,-0.3826,-0.3826,-0.3825,-0.3825,0,-0.4095,-0.409,-0.407,-0.4048,-0.4032,-0.4014,-0.3996,-0.3986,-0.3973,-0.3957,-0.3932,-0.3916,-0.3885,-0.386,-0.3836,-0.3824,-0.3821,-0.3821,-0.3815,-0.3816,-0.3819,-0.3815,-0.3867,-0.3822,-0.3822,-0.3823,-0.3823,-0.3823,-0.4071,-0.4055,-0.4036,-0.4014,-0.3999,-0.3983,-0.3966,-0.3954,-0.3933,-0.3907,-0.3903,-0.3876,-0.3856,-0.3823,-0.381,-0.3787,-0.3791,-0.3784,-0.3781,-0.3779,-0.3777,-0.3824,-0.3783,-0.3783,-0.3783,-0.3783,-0.3783,0,-0.4035,-0.4023,-0.4003,-0.3978,-0.396,-0.396,-0.394,-0.3925,-0.3901,-0.3883,-0.3863,-0.3834,-0.3809,-0.3793,-0.3767,-0.3753,-0.3751,-0.3746,-0.3746,-0.3743,-0.3776,-0.3783,-0.3748,-0.3748,-0.3748,-0.3748,-0.3748,-0.3748,-0.4015,-0.3987,-0.3979,-0.3944,-0.3931,-0.3905,-0.3893,-0.3877,-0.3863,-0.383,-0.381,-0.3799,-0.3781,-0.3754,-0.3731,-0.3727,-0.3717,-0.3712,-0.3707,-0.3738,-0.3741,-0.3745,-0.3751,-0.371,-0.371,-0.3676,-0.3675,-0.3675]},{"header":{"parameterUnit":"m.s-1","parameterCategory":1,"la1":30.2991,"la2":30.254,"lo1":-89.0895,"lo2":-89.0444,"dy":0.0017,"dx":0.0017,"nx":28,"ny":28,"refTime":"2023-11-08T03:00:00:Z","depth":0,"parameterNumber":3,"parameterNumberName":"V-component_of_WINDS"},"data":[0,0,0,0,0,0,0,0,0,0,0,0,0,0,0,0,0,0,0,0,0,0,0,0,0,0,0,0,0,0,0,0,0,0,0,0,0,0,0,0,0,0,0,0,0,0,0,0,0,0,0,0,0,0,0,0,0,0,1.2327,1.2327,0,1.2297,1.2297,1.2297,1.2216,1.2214,1.2212,1.2211,1.2182,1.2183,1.2184,0,0,0,0,0,0,0,0,0,0,0,0,0,1.2318,1.2318,1.2327,1.2327,1.2326,1.2297,1.2297,1.2296,1.2216,1.2214,1.2212,1.221,1.2182,1.2183,1.2184,0,0,0,0,0,0,0,0,0,0,0,0,0,1.2308,1.2318,1.2327,1.2283,1.2278,1.2297,1.2297,1.2296,1.2217,1.2214,1.2211,1.2209,1.2181,1.2183,1.2184,1.2244,0,0,1.2188,1.2188,0,0,0,0,0,0,0,0,1.2309,1.2309,1.229,1.2286,1.2281,1.2257,1.2283,1.2279,1.2217,1.224,1.2211,1.2208,1.2209,1.2208,1.2208,1.2243,1.2241,1.2188,1.2189,1.2189,1.219,0,0,0,0,0,0,0,1.231,1.231,1.2315,1.229,1.2284,1.2265,1.2261,1.2282,1.224,1.2238,1.2232,1.2229,1.2206,1.2207,1.2207,1.2241,1.2188,1.2189,1.219,1.219,1.2325,1.2328,0,0,0,0,0,0,1.2316,1.2311,1.2316,1.2314,1.2289,1.2268,1.2263,1.2268,1.2239,1.2232,1.2232,1.2226,1.2206,1.2206,1.2206,1.2276,1.2189,1.219,1.2191,1.2322,1.2326,1.2329,0,0,0,0,0,0,1.2316,1.2318,1.2317,1.2311,1.2309,1.227,1.2277,1.2269,1.2269,1.2235,1.2227,1.224,1.2204,1.2204,1.2235,1.2273,1.2191,1.2192,1.2319,1.2323,1.2327,1.2415,0,0,0,0,0,0,1.2317,1.2318,1.234,1.2312,1.231,1.2347,1.2279,1.227,1.2271,1.2263,1.224,1.2234,1.2202,1.2234,1.2237,1.2274,1.2193,1.2315,1.2321,1.2326,1.2409,1.2422,1.2433,0,0,0,0,0,1.2316,1.2366,1.2341,1.2342,1.2336,1.2349,1.2348,1.231,1.2275,1.2297,1.2275,1.2235,1.2269,1.2238,1.224,1.2278,1.2313,1.2319,1.2325,1.2403,1.2419,1.2433,0,0,0,0,0,0,1.2399,1.2361,1.2334,1.2375,1.2366,1.2336,1.2362,1.2328,1.2329,1.2322,1.2275,1.227,1.2309,1.2296,1.2263,1.2336,1.2284,1.2291,1.2343,1.2358,1.237,1.2372,1.2194,0,0,0,0,0,1.2422,1.2435,1.2402,1.2442,1.2438,1.2402,1.2406,1.2377,1.2366,1.2362,1.2342,1.2334,1.2342,1.2349,1.2355,1.2406,1.2401,1.2434,1.2446,1.2456,1.2464,1.2492,1.2507,1.235,1.2349,1.2349,0,0,1.247,1.2451,1.2462,1.2458,1.2447,1.2463,1.2399,1.2418,1.2429,1.2365,1.2394,1.2379,1.2366,1.2409,1.2426,1.24,1.2506,1.2464,1.2473,1.2474,1.25,1.2515,1.2528,1.2354,1.2353,1.2352,0,0,1.2566,1.2552,1.2584,1.2576,1.2561,1.2536,1.2544,1.2519,1.2507,1.2535,1.2487,1.2501,1.2516,1.251,1.2509,1.2604,1.2568,1.2607,1.2672,1.27,1.2712,1.2723,1.2759,1.2772,1.2614,1.2614,1.2615,0,1.2627,1.2648,1.2606,1.2628,1.2629,1.2571,1.2605,1.2598,1.2586,1.2588,1.2558,1.2578,1.2565,1.2606,1.263,1.263,1.2639,1.261,1.2714,1.2724,1.2733,1.2767,1.278,1.2619,1.2619,1.2618,1.2618,0,1.2726,1.2741,1.2769,1.276,1.2763,1.2791,1.2754,1.2763,1.2734,1.2713,1.2744,1.2727,1.2729,1.2736,1.2709,1.2774,1.2758,1.2722,1.2669,1.2754,1.2785,1.2797,1.2627,1.2625,1.2623,1.2622,0,0,1.2872,1.2839,1.285,1.2846,1.2826,1.2838,1.2864,1.2866,1.2875,1.2869,1.2891,1.2907,1.2873,1.2872,1.2843,1.2868,1.2947,1.2828,1.2827,1.2852,1.302,1.3049,1.3064,1.2922,1.2924,1.2926,1.3022,0,1.2963,1.3006,1.2969,1.3019,1.3034,1.298,1.3003,1.2994,1.2975,1.2986,1.2965,1.2978,1.2932,1.2931,1.2953,1.2933,1.298,1.2925,1.2944,1.2945,1.295,1.308,1.311,1.3201,1.3033,1.3035,1.3037,0,1.3075,1.3075,1.3127,1.3105,1.311,1.3131,1.3131,1.3141,1.3131,1.3116,1.3116,1.308,1.3106,1.3054,1.309,1.3053,1.3059,1.305,1.3053,1.3054,1.2997,1.3087,1.3229,1.3244,1.3055,1.3054,1.3052,0,1.3179,1.3192,1.3224,1.3222,1.3197,1.3214,1.3204,1.3191,1.3195,1.3196,1.3198,1.3202,1.3204,1.3208,1.3176,1.3141,1.3217,1.3161,1.3206,1.3207,1.3226,1.3225,1.3373,1.3227,1.3227,1.3226,1.3226,0,1.3286,1.332,1.3271,1.3291,1.3329,1.3286,1.3325,1.331,1.3299,1.3316,1.327,1.3287,1.3242,1.3256,1.3231,1.3266,1.3266,1.3256,1.3249,1.3261,1.3263,1.3265,1.3259,1.323,1.3229,1.3229,1.3228,0,1.3409,1.3377,1.3409,1.3383,1.3378,1.3407,1.3385,1.3403,1.3382,1.3405,1.3408,1.3375,1.3389,1.3356,1.3365,1.3348,1.3398,1.338,1.3402,1.3397,1.3445,1.3442,1.36,1.362,1.346,1.3462,1.3463,0,1.3479,1.3504,1.3482,1.349,1.3483,1.3497,1.3501,1.3461,1.3468,1.3459,1.3479,1.3489,1.3494,1.3519,1.3496,1.3504,1.3487,1.3542,1.3487,1.3499,1.349,1.3489,1.3493,1.3553,1.3555,1.3557,1.3558,0,1.3609,1.3593,1.36,1.3603,1.361,1.361,1.3608,1.3617,1.3575,1.3585,1.3598,1.3603,1.3613,1.3624,1.3626,1.3617,1.3582,1.3575,1.3587,1.36,1.3612,1.3608,1.3435,1.3572,1.3571,1.357,1.3569,1.3568,1.3709,1.3729,1.3717,1.3728,1.3722,1.3721,1.3738,1.3719,1.3729,1.3733,1.3709,1.3729,1.3719,1.3718,1.3714,1.3729,1.3704,1.372,1.3724,1.3729,1.3738,1.3609,1.3729,1.3728,1.3728,1.3728,1.3727,0,1.3838,1.3827,1.3838,1.3836,1.3845,1.381,1.3805,1.3816,1.3833,1.3827,1.3834,1.3851,1.3861,1.384,1.3848,1.3865,1.3849,1.3868,1.3867,1.3867,1.3758,1.3749,1.3881,1.3881,1.3881,1.3881,1.3881,1.3881,1.3906,1.394,1.3922,1.3953,1.3942,1.396,1.3961,1.3961,1.3956,1.3976,1.3985,1.3971,1.3959,1.3966,1.3975,1.3969,1.3975,1.4001,1.3989,1.3889,1.3874,1.386,1.385,1.4002,1.4002,1.4096,1.4097,1.4097]}]]